TimeEDT,TemperatureF,Dew PointF,Humidity,Sea Level PressureIn,VisibilityMPH,Wind Direction,Wind SpeedMPH,Gust SpeedMPH,PrecipitationIn,Events,Conditions,WindDirDegrees,DateUTC
12:54 AM,53.1,48.9,86,30.24,10.0,Calm,Calm,-,N/A,,Clear,0,2013-09-29 04:54:00
1:54 AM,52.0,48.9,89,30.24,10.0,Calm,Calm,-,N/A,,Clear,0,2013-09-29 05:54:00
2:54 AM,51.1,48.0,89,30.22,10.0,Calm,Calm,-,N/A,,Clear,0,2013-09-29 06:54:00
3:54 AM,51.1,48.0,89,30.21,10.0,Calm,Calm,-,N/A,,Clear,0,2013-09-29 07:54:00
4:54 AM,48.0,46.0,93,30.20,10.0,Calm,Calm,-,N/A,,Clear,0,2013-09-29 08:54:00
5:54 AM,48.9,46.0,90,30.21,10.0,Calm,Calm,-,N/A,,Clear,0,2013-09-29 09:54:00
6:54 AM,46.9,45.0,93,30.22,10.0,Calm,Calm,-,N/A,,Clear,0,2013-09-29 10:54:00
7:54 AM,51.1,48.0,89,30.22,10.0,Calm,Calm,-,N/A,,Overcast,0,2013-09-29 11:54:00
8:54 AM,55.0,51.1,86,30.21,10.0,Calm,Calm,-,N/A,,Mostly Cloudy,0,2013-09-29 12:54:00
9:54 AM,61.0,52.0,72,30.22,10.0,Calm,Calm,-,N/A,,Scattered Clouds,0,2013-09-29 13:54:00
10:54 AM,66.0,54.0,65,30.21,10.0,Calm,Calm,-,N/A,,Clear,0,2013-09-29 14:54:00
11:54 AM,71.1,48.9,45,30.19,10.0,SSE,9.2,-,N/A,,Partly Cloudy,160,2013-09-29 15:54:00
12:54 PM,71.1,50.0,47,30.17,10.0,South,3.5,-,N/A,,Scattered Clouds,180,2013-09-29 16:54:00
1:54 PM,72.0,48.9,44,30.14,10.0,SE,6.9,-,N/A,,Overcast,140,2013-09-29 17:54:00
2:54 PM,70.0,50.0,49,30.13,10.0,SE,4.6,-,N/A,,Overcast,140,2013-09-29 18:54:00
3:54 PM,71.1,50.0,47,30.11,10.0,SSE,4.6,-,N/A,,Overcast,150,2013-09-29 19:54:00
4:54 PM,72.0,50.0,46,30.10,10.0,Calm,Calm,-,N/A,,Mostly Cloudy,0,2013-09-29 20:54:00
5:54 PM,70.0,51.1,51,30.09,10.0,SSW,5.8,-,N/A,,Clear,200,2013-09-29 21:54:00
6:54 PM,66.9,50.0,54,30.09,10.0,Calm,Calm,-,N/A,,Clear,0,2013-09-29 22:54:00
7:54 PM,64.0,52.0,65,30.11,10.0,Calm,Calm,-,N/A,,Overcast,0,2013-09-29 23:54:00
8:54 PM,62.1,52.0,70,30.10,10.0,Calm,Calm,-,N/A,,Partly Cloudy,0,2013-09-30 00:54:00
9:54 PM,57.9,52.0,81,30.10,10.0,Calm,Calm,-,N/A,,Partly Cloudy,0,2013-09-30 01:54:00
10:54 PM,55.9,52.0,87,30.09,10.0,Calm,Calm,-,N/A,,Clear,0,2013-09-30 02:54:00
11:54 PM,54.0,52.0,93,30.10,10.0,Calm,Calm,-,N/A,,Overcast,0,2013-09-30 03:54:00